[[{"header":{"parameterUnit":"m.s-1","parameterCategory":1,"la1":30.2991,"la2":30.254,"lo1":-89.0895,"lo2":-89.0444,"dy":0.0017,"dx":0.0017,"nx":28,"ny":28,"refTime":"2024-09-25T09:00:00:Z","depth":0,"parameterNumber":2,"parameterNumberName":"U-component_of_WINDS"},"data":[0,0,0,0,0,0,0,0,0,0,0,0,0,0,0,0,0,0,0,0,0,0,0,0,0,0,0,0,0,0,0,0,0,0,0,0,0,0,0,0,0,0,0,0,0,0,0,0,0,0,0,0,0,0,0,0,0,0,5.0087,5.0087,0,5.0165,5.0166,5.0167,5.0078,5.0075,5.0071,5.0068,5.0147,5.0152,5.0157,0,0,0,0,0,0,0,0,0,0,0,0,0,4.986,4.9864,5.0086,5.0087,5.0088,5.0165,5.0166,5.0167,5.0078,5.0074,5.007,5.0066,5.0145,5.0151,5.0158,0,0,0,0,0,0,0,0,0,0,0,0,0,4.995,4.9866,5.0086,5.0053,5.0051,5.0165,5.0166,5.0167,5.0079,5.0074,5.0069,5.0065,5.0143,5.0151,5.0159,5.0308,0,0,5.0183,5.0186,0,0,0,0,0,0,0,0,4.9945,4.9959,5.0057,5.0056,5.0054,5.0106,5.0115,5.0214,5.0081,5.0069,5.0068,5.0062,5.0138,5.0145,5.0171,5.0311,5.0315,5.0183,5.0188,5.0191,5.0194,0,0,0,0,0,0,0,4.9939,4.9955,5.0117,5.0059,5.0057,5.0035,5.0042,5.0133,5.013,5.0069,5.0063,5.0074,5.0136,5.0164,5.0172,5.0316,5.0183,5.019,5.0195,5.0198,5.0583,5.0589,0,0,0,0,0,0,4.9937,4.995,5.0115,5.012,4.9986,5.0043,5.0051,5.0095,5.0129,5.0129,5.0078,5.0069,5.0153,5.0163,5.0175,5.0352,5.0191,5.0199,5.0203,5.0578,5.0585,5.0591,0,0,0,0,0,0,4.9932,4.9952,5.0112,5.0033,5.0052,5.0052,5.0102,5.0099,5.0127,5.0135,5.0134,5.0107,5.0149,5.0164,5.0276,5.0354,5.0202,5.0209,5.0571,5.058,5.0588,5.0708,0,0,0,0,0,0,4.9926,4.9951,5.0008,5.0035,5.0057,5.0212,5.0107,5.0104,5.0141,5.013,5.0163,5.0163,5.0147,5.0264,5.0283,5.0362,5.0215,5.0564,5.0575,5.0585,5.0697,5.072,5.0739,0,0,0,0,0,4.9918,5.0038,5.0011,5.0031,5.0127,5.0216,5.0228,5.0207,5.0148,5.0205,5.021,5.0162,5.0342,5.0277,5.0297,5.0379,5.0559,5.0572,5.0584,5.0688,5.0715,5.0739,0,0,0,0,0,0,5.0018,5.0041,5.0011,5.0143,5.0179,5.0201,5.0272,5.0236,5.0289,5.0277,5.0247,5.0256,5.0375,5.0388,5.0314,5.0526,5.0441,5.0458,5.0513,5.0539,5.0559,5.0554,5.0222,0,0,0,0,0,5.0056,5.0127,5.0142,5.0258,5.0277,5.0272,5.031,5.0291,5.0326,5.034,5.0354,5.039,5.0454,5.0497,5.0557,5.0699,5.0705,5.0766,5.0786,5.0804,5.0819,5.0896,5.0923,5.0632,5.0631,5.0631,0,0,5.0134,5.0155,5.0201,5.0278,5.0303,5.0377,5.0285,5.0367,5.0422,5.0352,5.0459,5.0471,5.0509,5.0637,5.0694,5.0652,5.0901,5.0819,5.0833,5.0839,5.0912,5.0939,5.0964,5.064,5.0638,5.0637,0,0,5.0315,5.0337,5.0436,5.0464,5.0504,5.05,5.0524,5.0552,5.0558,5.0665,5.0615,5.0679,5.0791,5.0821,5.085,5.1044,5.1003,5.1065,5.1173,5.1249,5.1272,5.1292,5.1362,5.1387,5.108,5.108,5.108,0,5.0407,5.0516,5.0492,5.0578,5.0614,5.0556,5.0656,5.0684,5.0741,5.0767,5.0719,5.0859,5.088,5.1015,5.1063,5.1088,5.1115,5.106,5.1271,5.1291,5.1309,5.1376,5.1402,5.1087,5.1086,5.1086,5.1085,0,5.0628,5.0705,5.078,5.0838,5.0882,5.0975,5.0965,5.1013,5.099,5.0992,5.1102,5.1126,5.119,5.1221,5.1199,5.1353,5.1326,5.1275,5.1189,5.1345,5.1407,5.1432,5.1098,5.1095,5.1093,5.1091,0,0,5.0873,5.0917,5.0945,5.0971,5.1012,5.1071,5.1162,5.1225,5.1267,5.1309,5.1385,5.1482,5.1435,5.1469,5.145,5.1517,5.167,5.1457,5.1458,5.1497,5.1843,5.1881,5.1911,5.1643,5.1648,5.1651,5.184,0,5.1054,5.1212,5.1194,5.1344,5.1416,5.1362,5.1441,5.1475,5.1479,5.1541,5.1545,5.1614,5.1547,5.1568,5.1631,5.1638,5.1739,5.1624,5.1713,5.1717,5.1706,5.1943,5.1984,5.2161,5.1864,5.1868,5.1871,0,5.1287,5.1339,5.1497,5.1528,5.1557,5.1629,5.1686,5.1746,5.1783,5.1781,5.1821,5.179,5.1882,5.1794,5.192,5.1843,5.1878,5.1887,5.1893,5.1901,5.1803,5.1958,5.2216,5.2243,5.1909,5.1906,5.1903,0,5.1451,5.156,5.1669,5.1693,5.1731,5.1783,5.1801,5.1834,5.1874,5.1924,5.195,5.201,5.2044,5.2091,5.2078,5.2016,5.2208,5.2119,5.2209,5.221,5.2252,5.2249,5.252,5.2275,5.2274,5.2274,5.2273,0,5.1656,5.1755,5.1743,5.181,5.192,5.1898,5.2007,5.2019,5.2049,5.2117,5.2075,5.214,5.2119,5.2183,5.2174,5.228,5.2295,5.2297,5.2293,5.2301,5.2301,5.2324,5.2311,5.2281,5.2279,5.2278,5.2277,0,5.1857,5.1853,5.1968,5.1996,5.2005,5.2085,5.2109,5.2172,5.2174,5.2261,5.2281,5.2283,5.2357,5.2349,5.2431,5.2425,5.2557,5.2538,5.2545,5.2541,5.2632,5.2624,5.2927,5.2966,5.2695,5.2697,5.27,0,5.1988,5.2063,5.21,5.2143,5.2166,5.2236,5.2277,5.2258,5.2303,5.2352,5.241,5.248,5.2535,5.2656,5.2665,5.2728,5.2711,5.2813,5.272,5.2726,5.2713,5.2709,5.2717,5.2831,5.2834,5.2837,5.2839,0,5.2222,5.2217,5.2278,5.2339,5.239,5.2437,5.248,5.2518,5.2504,5.2556,5.2632,5.2675,5.276,5.283,5.289,5.2909,5.2873,5.2868,5.2892,5.2901,5.2902,5.2904,5.2595,5.2861,5.2859,5.2857,5.2856,5.2855,5.2392,5.2457,5.2494,5.2564,5.2594,5.2636,5.2697,5.2707,5.277,5.2838,5.2823,5.2909,5.2945,5.3022,5.3048,5.3114,5.3077,5.3112,5.3121,5.313,5.3141,5.2892,5.3125,5.3124,5.3124,5.3123,5.3123,0,5.2624,5.2646,5.271,5.2772,5.2828,5.2789,5.2835,5.2884,5.296,5.2997,5.3053,5.3141,5.3209,5.3224,5.329,5.3341,5.3326,5.3359,5.3355,5.336,5.317,5.3143,5.337,5.337,5.337,5.337,5.337,5.3369,5.2752,5.286,5.286,5.2983,5.3003,5.3087,5.3117,5.3155,5.3185,5.3285,5.3342,5.3352,5.3381,5.3448,5.351,5.3512,5.3539,5.3579,5.3575,5.3398,5.3373,5.3349,5.3324,5.3585,5.3585,5.3759,5.3761,5.3762]},{"header":{"parameterUnit":"m.s-1","parameterCategory":1,"la1":30.2991,"la2":30.254,"lo1":-89.0895,"lo2":-89.0444,"dy":0.0017,"dx":0.0017,"nx":28,"ny":28,"refTime":"2024-09-25T09:00:00:Z","depth":0,"parameterNumber":3,"parameterNumberName":"V-component_of_WINDS"},"data":[0,0,0,0,0,0,0,0,0,0,0,0,0,0,0,0,0,0,0,0,0,0,0,0,0,0,0,0,0,0,0,0,0,0,0,0,0,0,0,0,0,0,0,0,0,0,0,0,0,0,0,0,0,0,0,0,0,0,-4.9486,-4.9489,0,-4.9784,-4.9787,-4.979,-4.9833,-4.983,-4.9827,-4.9825,-5.0131,-5.0141,-5.0152,0,0,0,0,0,0,0,0,0,0,0,0,0,-4.8956,-4.8966,-4.9486,-4.9489,-4.9493,-4.9783,-4.9787,-4.9791,-4.9833,-4.983,-4.9826,-4.9823,-5.0127,-5.014,-5.0153,0,0,0,0,0,0,0,0,0,0,0,0,0,-4.9213,-4.8969,-4.9485,-4.9549,-4.9558,-4.9782,-4.9787,-4.9792,-4.9834,-4.983,-4.9826,-4.9822,-5.0123,-5.0139,-5.0155,-5.0337,0,0,-5.0204,-5.0211,0,0,0,0,0,0,0,0,-4.9199,-4.9233,-4.9536,-4.9545,-4.9555,-4.9767,-4.9713,-4.9975,-4.9835,-4.9729,-4.9824,-4.982,-5.0013,-5.0038,-5.0103,-5.0351,-5.0364,-5.0205,-5.0215,-5.0222,-5.0226,0,0,0,0,0,0,0,-4.9181,-4.922,-4.9604,-4.954,-4.9552,-4.9564,-4.9596,-4.9763,-4.9891,-4.9738,-4.9742,-4.9776,-5.0018,-5.0087,-5.0111,-5.0369,-5.0205,-5.0219,-5.0229,-5.0235,-5.0784,-5.0789,0,0,0,0,0,0,-4.9151,-4.9205,-4.9594,-4.9613,-4.9363,-4.9577,-4.9612,-4.9703,-4.9889,-4.9913,-4.978,-4.9777,-5.0062,-5.0092,-5.0121,-5.0349,-5.0222,-5.0237,-5.0246,-5.0779,-5.0785,-5.079,0,0,0,0,0,0,-4.9139,-4.9185,-4.9582,-4.941,-4.9461,-4.959,-4.9692,-4.9711,-4.9781,-4.992,-4.9944,-4.9827,-5.006,-5.0099,-5.0283,-5.036,-5.0244,-5.0259,-5.0773,-5.0781,-5.0788,-5.0804,0,0,0,0,0,0,-4.9124,-4.9181,-4.9251,-4.9411,-4.947,-4.9739,-4.9696,-4.972,-4.9808,-4.9808,-4.9971,-4.9994,-5.006,-5.0259,-5.0299,-5.038,-5.0271,-5.0767,-5.0777,-5.0785,-5.0797,-5.0811,-5.0823,0,0,0,0,0,-4.9105,-4.9243,-4.9254,-4.9301,-4.956,-4.9743,-4.9777,-4.9849,-4.9814,-4.9886,-4.9976,-4.9989,-5.0345,-5.0278,-5.0323,-5.041,-5.0762,-5.0774,-5.0785,-5.0791,-5.0808,-5.0822,0,0,0,0,0,0,-4.9089,-4.9265,-4.9279,-4.9473,-4.9593,-4.9749,-4.9842,-4.9864,-4.9996,-4.999,-5.0074,-5.0111,-5.0292,-5.0369,-5.0291,-5.0597,-5.0551,-5.0571,-5.054,-5.0557,-5.057,-5.0548,-5.0285,0,0,0,0,0,-4.9107,-4.924,-4.9388,-4.9545,-4.9604,-4.9713,-4.9795,-4.984,-4.9967,-5.0018,-5.0121,-5.0245,-5.0385,-5.0475,-5.0611,-5.0808,-5.0845,-5.089,-5.0903,-5.0913,-5.093,-5.1042,-5.1065,-5.0827,-5.0827,-5.0826,0,0,-4.9148,-4.9261,-4.934,-4.9544,-4.9642,-4.9779,-4.9755,-4.99,-5.0003,-5.004,-5.0221,-5.0301,-5.0445,-5.0637,-5.0727,-5.0707,-5.1004,-5.0927,-5.0934,-5.0946,-5.1056,-5.1078,-5.1098,-5.0834,-5.0833,-5.0832,0,0,-4.9292,-4.939,-4.9533,-4.9632,-4.978,-4.9852,-4.9886,-5.004,-5.0095,-5.0278,-5.0309,-5.0433,-5.0671,-5.0773,-5.0856,-5.104,-5.1057,-5.1082,-5.1149,-5.1257,-5.1276,-5.1293,-5.1361,-5.1384,-5.1098,-5.1098,-5.1098,0,-4.9324,-4.9531,-4.9604,-4.9749,-4.9839,-4.9878,-5.0024,-5.0117,-5.0302,-5.0364,-5.0339,-5.064,-5.074,-5.0957,-5.1002,-5.1067,-5.111,-5.1064,-5.1267,-5.1285,-5.1302,-5.1368,-5.1393,-5.11,-5.11,-5.11,-5.11,0,-4.9564,-4.9707,-4.9804,-4.9982,-5.0083,-5.0228,-5.0324,-5.0417,-5.0453,-5.0528,-5.0715,-5.0835,-5.0998,-5.1052,-5.1089,-5.1276,-5.1259,-5.125,-5.1205,-5.1326,-5.1389,-5.1414,-5.1103,-5.1103,-5.1102,-5.1101,0,0,-4.9707,-4.9923,-4.9958,-5.004,-5.0207,-5.032,-5.0467,-5.0625,-5.0705,-5.0831,-5.0958,-5.1159,-5.1152,-5.1246,-5.1295,-5.139,-5.1531,-5.1369,-5.1374,-5.1397,-5.1746,-5.1753,-5.1781,-5.1543,-5.1548,-5.1552,-5.1735,0,-4.9872,-5.0134,-5.0205,-5.0428,-5.0562,-5.0602,-5.0731,-5.0848,-5.0921,-5.1047,-5.1128,-5.1271,-5.1249,-5.1307,-5.1402,-5.1493,-5.1602,-5.1481,-5.1663,-5.1669,-5.1627,-5.1814,-5.1822,-5.1989,-5.176,-5.1764,-5.1767,0,-5.0099,-5.0231,-5.0467,-5.0619,-5.0678,-5.0792,-5.0944,-5.1062,-5.1196,-5.1244,-5.1349,-5.1389,-5.1546,-5.1491,-5.1709,-5.1625,-5.1703,-5.1759,-5.1768,-5.1789,-5.1726,-5.1842,-5.2043,-5.2069,-5.1806,-5.1803,-5.18,0,-5.0182,-5.0418,-5.0591,-5.066,-5.084,-5.0919,-5.0998,-5.1128,-5.122,-5.1352,-5.1413,-5.1562,-5.1644,-5.176,-5.184,-5.1792,-5.2051,-5.2003,-5.2096,-5.2095,-5.215,-5.2146,-5.2369,-5.2198,-5.2197,-5.2197,-5.2196,0,-5.036,-5.0504,-5.0631,-5.0737,-5.09,-5.098,-5.1139,-5.1219,-5.1335,-5.1459,-5.1502,-5.1617,-5.1715,-5.1845,-5.1908,-5.208,-5.2116,-5.216,-5.2175,-5.2157,-5.2152,-5.2211,-5.2202,-5.2204,-5.2202,-5.2201,-5.22,0,-5.048,-5.0571,-5.0762,-5.0917,-5.0959,-5.1073,-5.1206,-5.1312,-5.1387,-5.1543,-5.1585,-5.1703,-5.1858,-5.1948,-5.2143,-5.2186,-5.2377,-5.2386,-5.2332,-5.2339,-5.2428,-5.2419,-5.2699,-5.274,-5.2539,-5.2541,-5.2542,0,-5.0589,-5.07,-5.0868,-5.0953,-5.1033,-5.1171,-5.1264,-5.1348,-5.1444,-5.1606,-5.1692,-5.1849,-5.1979,-5.2224,-5.2328,-5.2478,-5.2493,-5.2581,-5.2516,-5.2494,-5.2497,-5.249,-5.2502,-5.2592,-5.2594,-5.2595,-5.2596,0,-5.0772,-5.0812,-5.0945,-5.1094,-5.1204,-5.1326,-5.1447,-5.1515,-5.1619,-5.1725,-5.1883,-5.1984,-5.2183,-5.2339,-5.2498,-5.2581,-5.2607,-5.2616,-5.2646,-5.2629,-5.2593,-5.2616,-5.2364,-5.2609,-5.2608,-5.2607,-5.2606,-5.2606,-5.0892,-5.0994,-5.1127,-5.1275,-5.1374,-5.1487,-5.1594,-5.1683,-5.1816,-5.1985,-5.2026,-5.2193,-5.2326,-5.2542,-5.2628,-5.2761,-5.2746,-5.2789,-5.28,-5.281,-5.2814,-5.2571,-5.279,-5.2789,-5.2789,-5.2789,-5.2789,0,-5.1079,-5.1167,-5.1302,-5.147,-5.1586,-5.1599,-5.1735,-5.1831,-5.1977,-5.2099,-5.2226,-5.2409,-5.2561,-5.2677,-5.2833,-5.2917,-5.2933,-5.2956,-5.2951,-5.297,-5.2817,-5.2776,-5.294,-5.294,-5.294,-5.294,-5.294,-5.294,-5.1191,-5.1364,-5.1419,-5.1644,-5.1731,-5.1895,-5.1971,-5.2076,-5.2173,-5.2375,-5.2502,-5.2576,-5.2697,-5.2862,-5.3003,-5.3033,-5.3089,-5.311,-5.3143,-5.2997,-5.2981,-5.2965,-5.2928,-5.3121,-5.3121,-5.3286,-5.3288,-5.3289]}]]